Location: Cerbedi�res
(48.2182°N, 1.4849°W)
Time: 22:38:59
(UTC+00:00)

Cosmos 1503 Rocket - Pass Details

Date: 03 March 2021
Orbit: 753 x 790 km, 74.0° (Epoch: 14 April)

Event Time Altitude Azimuth Distance (km) Brightness Sun altitude
Rises 18:27:58 0° 340° (NNW) 3,234 7.5 -6.6°
Reaches altitude 10° 18:30:27 10° 346° (NNW) 2,300 6.6 -7.0°
Maximum altitude 18:35:29 48° 61° (ENE) 980 4.2 -7.8°
Drops below altitude 10° 18:40:28 10° 136° (SE) 2,274 6.0 -8.6°
Sets 18:42:54 0° 142° (SE) 3,194 6.8 -9.0°
